Voltar ao catálogo

COSMOS 1818 COOLANT

LostLEO
NORAD 36945·DEBRIS·🇷🇺 Russia

Lançado Feb 1, 1987 de Baikonur Cosmodrome

Loading…

Próximas Passagens (próximas 24 horas)

TLE

ObsoletoSource: Space-Track

Época: May 29, 2015, 01:24 UTC

1 36945U 87011Z   15149.05901850 +.00001428 +00000-0 +54358-3 0  9995
2 36945 065.0275 021.7831 0015810 260.2765 099.9410 14.34179390326373

Acompanhe COSMOS 1818 COOLANT em tempo real com AllMySat

Download on the App Store